TimeEDT,TemperatureF,Dew PointF,Humidity,Sea Level PressureIn,VisibilityMPH,Wind Direction,Wind SpeedMPH,Gust SpeedMPH,PrecipitationIn,Events,Conditions,WindDirDegrees,DateUTC
12:38 AM,60.8,59.0,94,29.93,2.5,NE,6.9,-,0.02,Rain,Light Rain,50,2011-10-12 04:38:00
12:54 AM,61.0,59.0,93,29.91,2.5,ENE,8.1,-,0.04,Rain,Rain,70,2011-10-12 04:54:00
1:10 AM,60.8,59.0,94,29.92,2.5,ENE,8.1,-,0.01,Rain,Light Rain,60,2011-10-12 05:10:00
1:54 AM,61.0,59.0,93,29.89,2.5,East,6.9,-,0.03,Rain,Light Rain,80,2011-10-12 05:54:00
2:27 AM,60.8,59.0,94,29.90,3.0,East,5.8,-,0.04,Rain,Light Rain,80,2011-10-12 06:27:00
2:54 AM,61.0,59.0,93,29.88,3.0,East,4.6,-,0.05,Rain,Light Rain,100,2011-10-12 06:54:00
3:54 AM,61.0,59.0,93,29.85,2.5,East,5.8,-,0.03,Rain,Light Rain,80,2011-10-12 07:54:00
4:54 AM,61.0,60.1,97,29.84,2.5,Calm,Calm,-,0.23,Rain,Rain,0,2011-10-12 08:54:00
5:15 AM,60.8,60.8,100,29.86,2.0,Calm,Calm,-,0.06,Rain-Thunderstorm,Heavy Thunderstorms and Rain,0,2011-10-12 09:15:00
5:54 AM,61.0,60.1,97,29.86,1.5,ESE,4.6,-,0.76,Rain-Thunderstorm,Heavy Thunderstorms and Rain,120,2011-10-12 09:54:00
6:34 AM,62.6,60.8,94,29.87,3.0,Calm,Calm,-,0.64,Rain,Light Rain,0,2011-10-12 10:34:00
6:54 AM,61.0,60.1,97,29.84,4.0,ENE,3.5,-,0.69,Rain,Rain,70,2011-10-12 10:54:00
7:33 AM,60.8,60.8,100,29.86,10.0,ESE,3.5,-,0.11,Rain,Light Rain,110,2011-10-12 11:33:00
7:54 AM,62.1,60.1,93,29.85,3.0,Calm,Calm,-,0.11,Rain,Light Rain,0,2011-10-12 11:54:00
8:10 AM,62.6,60.8,94,29.87,3.0,Calm,Calm,-,0.01,Rain,Light Rain,0,2011-10-12 12:10:00
8:54 AM,63.0,60.1,90,29.86,3.0,Calm,Calm,-,0.04,Rain,Light Rain,0,2011-10-12 12:54:00
9:23 AM,62.6,60.8,94,29.88,2.0,Calm,Calm,-,0.02,Rain,Rain,0,2011-10-12 13:23:00
9:54 AM,63.0,61.0,93,29.86,3.0,Calm,Calm,-,0.03,Rain,Light Rain,0,2011-10-12 13:54:00
10:54 AM,63.0,61.0,93,29.85,10.0,NW,3.5,-,0.01,,Overcast,320,2011-10-12 14:54:00
11:54 AM,64.9,62.1,90,29.84,10.0,Calm,Calm,-,N/A,,Overcast,0,2011-10-12 15:54:00
12:54 PM,66.9,63.0,87,29.81,10.0,NE,4.6,-,N/A,,Overcast,50,2011-10-12 16:54:00
1:07 PM,66.2,62.6,88,29.84,10.0,Calm,Calm,-,N/A,,Overcast,0,2011-10-12 17:07:00
1:54 PM,68.0,63.0,84,29.80,10.0,Calm,Calm,-,N/A,,Overcast,0,2011-10-12 17:54:00
2:54 PM,68.0,63.0,84,29.79,10.0,Calm,Calm,-,N/A,,Overcast,0,2011-10-12 18:54:00
3:54 PM,68.0,64.0,87,29.78,10.0,East,3.5,-,N/A,,Overcast,80,2011-10-12 19:54:00
4:54 PM,69.1,64.0,84,29.78,9.0,Variable,4.6,-,N/A,,Mostly Cloudy,0,2011-10-12 20:54:00
5:44 PM,69.8,64.4,83,29.79,10.0,ENE,5.8,-,N/A,,Mostly Cloudy,70,2011-10-12 21:44:00
6:26 PM,69.8,64.4,83,29.80,10.0,East,3.5,-,N/A,,Overcast,80,2011-10-12 22:26:00
6:54 PM,68.0,64.9,90,29.78,10.0,ENE,3.5,-,N/A,,Mostly Cloudy,70,2011-10-12 22:54:00
7:12 PM,68.0,64.4,88,29.79,10.0,ENE,3.5,-,N/A,,Overcast,60,2011-10-12 23:12:00
7:54 PM,68.0,64.0,87,29.78,10.0,North,4.6,-,N/A,,Overcast,350,2011-10-12 23:54:00
8:54 PM,66.9,64.0,90,29.78,7.0,NNE,4.6,-,N/A,,Mostly Cloudy,30,2011-10-13 00:54:00
9:54 PM,66.0,63.0,90,29.78,7.0,Calm,Calm,-,N/A,,Overcast,0,2011-10-13 01:54:00
10:54 PM,64.9,63.0,93,29.78,5.0,ENE,3.5,-,N/A,,Mostly Cloudy,60,2011-10-13 02:54:00
11:54 PM,64.9,63.0,93,29.77,5.0,Calm,Calm,-,N/A,,Mostly Cloudy,0,2011-10-13 03:54:00